Location: Demmingen
(48.6757°N, 10.4375°E)
Time: 03:00:55
(UTC+00:00)

Meteor 1-28 Rocket - Pass Details

Date: 23 May 2024
Orbit: 474 x 490 km, 97.5° (Epoch: 13 June)

Event Time Altitude Azimuth Distance (km) Brightness Sun altitude
Exits shadow 02:00:28 10° 176° (S) 1,683 5.4 -11.5°
Reaches altitude 10° 02:00:32 10° 176° (S) 1,657 5.3 -11.5°
Maximum altitude 02:04:04 64° 258° (WSW) 536 3.0 -11.1°
Drops below altitude 10° 02:07:37 10° 341° (NNW) 1,663 6.2 -10.7°
Sets 02:09:42 0° 345° (NNW) 2,545 7.2 -10.5°
